Theta_e
333 338 348 349 349 348 348 345 344 345 344 345 343 343 342 342 342 343 343 343 342 338 338 338 337 336 336 335 335 334 334 334 336 335 334 334 336 337 338 337 337 333 339
336 341 347 348 348 348 347 345 344 345 343 344 344 341 340 340 340 340 341 342 339 338 338 339 339 339 338 336 335 334 333 333 332 331 335 332 335 335 337 336 337 332 336
338 342 345 347 349 348 347 343 344 345 341 340 343 341 340 339 338 337 338 340 337 337 337 338 336 336 335 338 336 334 333 331 332 332 332 327 328 335 337 336 335 337 337
340 342 343 344 348 347 346 343 344 344 342 342 344 342 339 339 337 336 336 336 336 336 336 337 335 336 335 337 335 334 333 332 333 332 327 327 328 336 337 336 335 336 337
338 342 343 344 347 346 345 344 344 344 343 342 344 342 338 338 336 335 335 335 335 335 336 336 335 336 335 335 334 333 332 332 329 326 325 328 329 334 336 335 334 335 335
336 340 341 345 346 345 344 344 342 343 343 342 342 342 340 338 336 335 334 335 334 335 335 335 336 335 336 335 334 331 331 330 325 321 323 327 326 332 335 335 334 335 335
334 338 341 343 345 345 343 342 342 341 341 339 341 342 341 338 337 335 333 334 334 334 334 335 335 334 334 334 333 332 330 327 319 319 321 323 326 332 336 335 334 335 334
334 337 340 337 340 342 342 342 341 341 340 339 339 341 343 340 337 336 335 334 334 333 334 334 334 333 332 332 331 329 328 326 321 319 319 321 331 332 333 334 334 334 333
334 335 336 338 336 335 338 338 339 340 339 338 338 340 340 339 338 337 336 335 333 332 333 333 332 331 330 330 328 326 326 325 318 319 321 320 332 332 332 332 332 333 331
331 333 334 334 335 334 334 332 334 335 335 335 333 332 331 333 334 333 331 334 334 333 333 332 331 330 328 326 326 325 323 324 317 318 317 318 330 330 330 330 330 331 331
331 330 332 333 332 333 332 330 329 330 331 330 328 325 324 325 326 327 327 331 334 334 332 331 331 330 329 325 325 323 320 315 316 317 315 321 328 328 329 329 330 330 330
326 329 330 332 331 331 334 330 328 328 327 325 324 323 323 322 323 324 322 327 331 330 332 332 331 330 323 315 313 318 314 314 314 314 315 321 326 327 327 329 329 330 330
325 325 328 329 330 330 331 328 326 326 324 323 322 322 322 322 320 322 322 325 322 321 322 324 322 319 316 315 315 315 316 315 314 314 317 321 325 328 327 327 329 329 330
321 324 326 328 329 330 333 331 326 325 323 322 321 321 319 318 317 318 318 320 319 318 317 316 316 316 316 315 315 315 315 315 314 314 315 318 323 327 328 328 328 329 330
320 322 324 326 328 331 333 332 331 327 325 323 321 320 319 316 316 316 317 317 316 316 315 313 313 313 313 313 314 315 315 314 314 314 314 315 320 325 328 329 329 329 331
321 321 322 326 328 329 331 331 330 330 327 324 323 322 320 318 316 315 316 316 315 315 314 314 313 312 312 313 314 314 314 314 313 313 313 313 318 322 327 329 329 329 330
323 322 320 322 327 328 330 331 330 330 329 326 325 324 322 321 318 317 315 315 316 314 314 313 312 312 312 313 311 312 313 313 312 312 312 312 313 317 321 327 328 329 330
323 323 323 323 323 327 329 329 330 329 328 328 326 325 324 323 321 319 318 317 316 314 313 312 312 310 310 310 310 311 311 311 311 312 312 312 312 313 316 322 326 328 329
323 324 323 323 320 323 327 328 327 326 326 326 325 325 324 324 323 322 320 320 317 315 314 313 312 311 309 309 310 310 310 310 311 313 311 312 312 313 313 317 320 322 327
321 322 323 323 322 320 324 325 324 324 325 325 324 324 324 325 324 323 323 321 318 317 315 312 313 310 310 310 311 311 310 313 312 311 312 313 313 313 313 313 314 314 318
316 319 322 322 322 320 318 320 322 321 322 322 323 324 323 324 324 324 324 321 318 318 318 315 313 312 310 308 308 308 310 313 313 313 313 312 312 313 313 313 313 313 314
310 317 319 321 321 320 321 321 322 320 322 323 323 322 323 323 323 324 323 322 320 320 318 316 315 312 311 310 308 305 304 306 308 311 311 312 312 312 312 313 313 312 312
304 310 317 320 320 320 320 320 315 314 314 316 321 321 320 322 323 323 323 323 321 320 319 317 316 315 314 309 312 309 301 302 304 308 308 310 312 311 312 312 313 313 312
302 304 310 317 320 319 318 318 316 316 315 317 319 319 320 319 321 322 322 322 322 320 320 319 317 317 315 313 307 312 311 306 304 303 309 309 310 310 310 311 312 312 312
302 301 304 311 316 319 316 318 317 315 318 318 316 315 316 318 319 320 321 321 321 321 320 320 318 314 316 315 312 307 310 312 309 308 306 307 309 309 310 311 311 311 312
299 300 301 305 311 317 316 315 316 315 315 316 315 314 316 316 317 317 319 320 320 320 320 320 318 317 315 315 315 313 311 307 309 309 308 309 307 308 310 310 310 311 310
Wind_Speed
3 4 8 12 13 13 14 13 12 12 12 13 13 13 12 13 14 15 14 14 18 13 15 15 16 17 17 16 16 16 16 17 15 17 16 15 15 16 16 15 12 7 16
6 4 7 13 15 14 14 13 12 11 10 12 14 13 12 12 14 14 14 13 14 14 15 15 15 15 15 14 14 14 14 14 14 14 11 12 13 13 14 15 14 11 14
8 4 5 11 16 15 13 12 11 12 12 11 13 14 13 12 12 13 13 13 12 14 13 14 14 13 10 13 13 13 13 13 11 11 11 5 5 10 14 14 13 14 13
10 7 5 9 13 14 14 13 11 11 12 10 15 16 13 13 11 12 12 11 13 12 13 13 13 11 12 12 12 12 11 9 10 10 6 6 6 9 12 12 12 13 14
5 7 9 9 11 10 12 12 11 11 12 10 11 16 12 12 11 11 10 11 11 11 12 12 12 10 9 12 11 10 10 9 10 8 5 5 4 9 11 11 9 11 11
4 5 9 14 10 9 8 10 10 11 11 9 11 11 15 13 11 10 10 9 10 10 10 10 11 9 10 10 10 8 8 8 8 5 5 7 6 9 10 10 9 10 11
5 4 5 9 13 10 8 7 9 10 10 6 6 10 16 15 11 10 10 9 8 9 9 9 9 8 8 8 8 6 5 6 4 4 4 5 6 9 10 10 7 10 11
7 5 5 7 8 10 11 7 5 7 8 7 6 12 14 16 12 10 10 10 9 8 8 8 8 7 6 7 7 6 3 4 3 3 3 4 9 8 9 9 7 7 10
5 6 4 6 5 7 8 11 7 6 5 6 6 12 13 13 14 11 8 8 9 9 7 7 6 5 5 5 5 5 4 3 2 1 3 3 8 7 8 7 6 5 9
4 5 5 4 6 4 4 7 11 8 6 3 2 2 8 11 12 11 8 7 8 8 7 6 5 4 3 3 4 3 3 2 1 1 2 3 6 5 6 6 4 2 7
3 4 4 5 5 5 5 4 5 9 9 5 3 4 6 3 4 8 7 8 7 7 7 6 5 4 2 1 1 2 2 0 1 2 1 5 6 4 4 5 5 1 6
9 7 6 5 6 5 3 5 4 3 3 5 5 3 3 3 1 2 3 7 8 7 6 6 6 4 1 0 1 1 1 2 2 3 2 6 6 5 4 3 3 1 5
7 4 7 6 5 6 4 3 2 2 3 2 6 5 5 3 2 2 1 2 1 2 1 2 2 1 2 2 2 2 3 3 2 3 4 7 8 6 5 4 3 2 4
6 8 6 6 6 6 4 5 4 4 3 3 4 6 4 3 4 4 3 4 3 2 3 3 2 3 4 4 4 5 5 3 2 3 4 6 8 8 7 7 6 5 6
7 8 8 7 8 9 9 7 6 5 5 5 4 4 3 4 5 4 4 3 4 3 4 4 4 4 5 5 5 5 5 5 5 3 3 7 8 10 10 9 8 8 8
8 9 7 8 8 7 10 10 7 6 6 5 5 6 6 4 4 4 4 4 4 4 4 4 5 4 4 4 5 5 6 5 6 6 4 4 8 9 11 12 10 9 9
10 8 9 10 9 10 11 12 10 8 8 7 7 8 8 7 7 6 4 4 5 4 5 4 4 3 4 3 6 5 5 6 5 6 5 4 5 8 11 13 12 10 9
8 11 9 9 10 11 11 9 8 8 8 8 7 7 10 9 8 6 5 6 5 4 4 4 4 4 4 4 4 5 4 5 6 6 5 4 4 4 6 11 12 12 11
11 11 10 10 12 13 12 8 8 8 8 8 7 7 10 11 10 8 7 6 5 5 5 4 4 4 4 4 5 5 5 5 6 5 6 6 6 5 4 7 10 10 12
9 9 9 9 12 12 9 7 5 6 7 7 7 8 9 8 11 10 9 8 6 5 5 4 7 4 5 4 5 6 5 6 5 6 8 6 6 6 6 6 5 5 11
7 8 11 8 11 7 6 6 7 10 8 7 8 10 10 10 11 11 9 8 7 9 10 8 5 7 5 3 2 4 5 9 10 9 8 7 7 7 6 6 4 4 4
8 9 8 11 10 10 9 8 7 5 9 9 8 11 13 12 12 11 11 9 10 8 9 9 9 4 4 5 3 1 4 4 3 7 5 6 8 5 6 7 6 6 5
9 9 8 11 11 11 14 6 3 1 0 3 8 9 10 13 13 14 12 11 10 10 10 10 10 11 8 4 9 5 2 5 2 1 4 4 5 5 6 6 7 6 6
8 7 8 9 10 11 10 9 13 11 11 11 11 7 9 13 14 14 14 13 13 9 12 10 9 11 9 10 3 8 8 2 3 4 2 3 4 5 6 5 5 6 6
7 7 7 8 8 11 11 14 12 13 10 9 5 7 8 9 13 13 13 14 13 11 12 13 11 12 11 11 9 4 8 9 6 8 11 5 2 4 4 5 5 5 6
6 6 6 7 9 7 7 11 13 13 12 8 7 5 7 5 6 11 13 13 13 13 14 12 13 14 13 12 11 10 10 6 9 9 10 10 6 4 5 5 5 6 5
Wind_Direction
238 212 153 143 140 126 123 121 119 116 113 113 111 104 102 100 100 95 92 90 99 96 98 98 93 91 87 86 78 71 68 66 64 70 60 58 56 58 57 51 48 51 56
143 196 162 142 137 141 131 128 129 124 124 118 112 105 106 107 104 103 103 97 103 105 106 101 97 86 95 95 90 84 80 74 75 69 59 59 68 60 57 52 45 46 46
133 155 161 143 140 140 133 128 132 129 125 125 129 109 106 107 109 105 115 105 109 111 111 107 97 87 71 112 97 88 86 85 72 61 45 24 63 57 61 52 46 42 39
140 140 135 150 145 143 136 138 138 136 129 124 132 120 113 109 108 112 119 118 115 117 118 112 104 80 76 99 95 92 88 66 61 46 29 11 16 55 53 45 42 43 60
126 143 139 150 147 146 140 146 144 143 137 133 143 120 120 114 114 119 121 117 118 121 122 117 109 85 85 95 94 89 85 78 60 43 33 20 16 56 49 49 48 52 63
137 143 155 150 150 146 147 146 147 147 146 142 135 127 129 127 129 128 126 115 127 122 124 128 111 97 88 94 85 82 76 73 57 34 31 15 6 43 42 42 49 75 70
150 150 155 156 149 150 158 157 157 153 150 134 136 133 136 128 131 133 138 136 133 129 133 130 119 107 103 96 84 70 70 78 65 36 24 17 348 34 38 47 49 77 70
153 155 154 161 156 158 156 162 163 162 152 156 166 128 144 135 141 145 147 150 145 141 137 137 133 126 117 98 87 63 66 110 70 39 17 7 339 45 38 50 45 69 71
146 147 161 161 177 172 167 154 160 179 170 175 165 137 148 149 144 149 150 156 156 157 152 152 146 144 135 117 97 59 50 148 115 13 8 360 341 30 33 34 37 75 73
160 160 164 178 167 183 180 173 160 165 184 167 114 126 142 141 145 141 156 165 163 165 167 166 163 160 148 117 108 70 55 86 184 328 351 320 335 5 27 20 23 57 93
178 192 177 177 188 174 175 203 180 163 165 152 135 89 81 94 133 148 163 171 169 173 181 184 192 188 172 74 31 68 97 34 232 269 286 292 308 337 1 7 23 73 117
202 197 193 193 187 178 183 168 183 198 182 158 160 144 117 122 146 122 179 178 178 182 189 204 211 213 197 212 290 353 211 247 253 256 255 273 280 300 317 339 360 277 141
206 197 196 191 192 183 185 172 172 168 179 199 175 170 166 159 166 188 209 200 267 208 233 259 271 244 246 237 259 279 269 254 242 254 269 266 259 273 287 288 281 256 183
192 211 197 198 191 193 191 190 178 178 183 190 208 186 168 176 190 195 196 202 205 212 231 237 247 261 265 259 258 273 272 264 250 255 262 270 255 257 266 271 271 248 239
217 219 206 190 199 204 204 209 195 200 188 189 194 198 191 186 192 184 206 198 206 198 204 226 241 252 259 257 259 255 268 268 267 261 256 260 259 252 256 260 262 264 247
223 220 206 204 204 197 211 212 214 202 201 188 190 197 193 193 205 207 204 207 208 199 213 213 213 228 250 258 271 259 261 263 258 257 251 256 255 254 253 255 256 258 265
220 216 203 206 202 201 211 219 220 217 209 199 201 198 198 199 201 196 209 219 221 208 216 222 238 237 253 255 256 258 256 258 257 255 250 249 256 250 248 249 251 253 255
225 210 209 204 204 210 213 209 216 219 213 216 207 202 199 199 202 208 215 217 209 204 207 209 214 232 239 238 251 250 246 253 256 253 253 247 239 245 253 250 245 248 249
223 225 213 201 209 207 214 211 209 206 209 214 212 211 203 201 198 207 216 223 204 205 200 211 228 215 230 242 249 256 251 246 248 247 243 240 235 229 230 242 239 243 244
227 225 226 209 216 211 207 204 208 211 216 214 213 214 214 208 202 206 218 216 194 208 219 205 217 205 217 234 259 267 257 253 243 239 245 229 228 226 220 228 230 232 236
236 221 219 213 219 193 194 199 215 221 218 217 216 212 206 210 206 211 223 216 195 213 218 207 209 225 240 187 329 290 266 245 239 236 225 222 221 221 221 221 217 225 237
233 225 219 219 212 202 206 217 214 202 224 222 216 216 210 207 207 212 217 216 208 220 221 206 203 206 227 174 205 144 293 310 276 243 213 213 221 197 223 219 216 218 226
235 233 225 225 224 215 214 197 183 144 252 200 223 224 215 209 208 211 215 218 213 212 227 218 208 212 228 193 204 196 246 238 321 277 252 227 225 192 217 214 220 217 214
252 252 241 235 222 218 205 206 208 214 222 226 230 216 213 203 213 214 217 214 219 214 224 222 208 216 216 226 195 224 241 178 228 316 298 256 210 218 209 206 212 216 214
286 284 267 256 236 225 204 205 210 221 229 236 218 220 213 208 210 213 218 222 224 217 224 223 213 205 213 226 214 173 225 237 232 241 274 256 271 228 224 212 193 206 213
303 295 282 264 255 237 210 214 218 223 229 234 227 217 228 208 204 214 217 222 227 228 229 221 219 212 214 217 228 224 214 194 210 215 236 250 227 249 219 205 203 207 197